Hourly Data Report for May 03, 2020

STE-ANNE-DE-BELLEVUE 1
QUEBEC
Current Station Operator: ECCC - MSC

45°25'38.000" N
73°55'45.000" W
39.00 m
702FHL8
71377
WVQ

Download Data

Hourly Data (May 2020)
Hourly Data Report for May 3, 2020
TIME
LST
Temp Definition
°C
Dew Point Definition
°C
Rel Hum Definition
%
Precip. Amount Definition
mm

Wind Dir Definition
10's deg

Wind Spd Definition
km/h
Visibility Definition
km
Stn Press Definition
kPa
Hmdx Definition


Wind Chill Definition


Weather Definition


00:00 11.1 7.3 78 0.0 28 3   100.33     LegendNANA
01:00 10.8 8.0 83 0.0 0 1   100.24     LegendNANA
02:00 10.9 7.5 79 0.0 11 5   100.12     LegendNANA
03:00 10.0 8.2 89 0.0 36 5   100.11     LegendNANA
04:00 10.3 8.2 87 0.0 9 8   99.98     LegendNANA
05:00 10.5 7.0 79 0.0 12 8   99.92     LegendNANA
06:00 10.9 6.5 74 0.0 14 6   99.90     LegendNANA
07:00 12.2 6.9 70 0.0 23 7   99.91     LegendNANA
08:00 12.5 7.9 73 0.0 25 11   99.92     LegendNANA
09:00 14.4 9.0 70 0.0 26 18   99.87     LegendNANA
10:00 16.0 9.2 64 0.0 25 21   99.88     LegendNANA
11:00 17.1 7.7 54 0.0 27 23   99.90     LegendNANA
12:00 18.6 6.0 44 0.0 26 22   99.83     LegendNANA
13:00 19.4 5.3 40 0.0 25 22   99.80     LegendNANA
14:00 20.4 6.1 40 0.0 21 21   99.68     LegendNANA
15:00 20.0 5.7 39 0.0 23 25   99.59     LegendNANA
16:00 13.5 10.5 82 0.6 36 18   99.65     LegendNANA
17:00 14.7 11.4 81 1.6 11 3   99.54     LegendNANA
18:00 18.2 6.7 47 0.0 24 21   99.48     LegendNANA
19:00 17.6 6.4 48 0.0 23 14   99.50     LegendNANA
20:00 14.8 7.0 59 0.0 35 17   99.69     LegendNANA
21:00 13.6 5.1 56 0.0 33 22   99.85     LegendNANA
22:00 11.5 4.9 64 0.0 32 11   99.89     LegendNANA
23:00 11.7 3.7 58 0.0 31 15   99.89     LegendNANA

Notes on Data Quality.

Legend

  • E = Estimated
  • M = Missing
  • NA = Not Available*
  • [empty] = Indicates an unobserved value
Date modified: